Regional Weather Roundup
Issued by NWS Upton, NY

Current Version | Previous Version | Text Only | Print | Product List | Glossary Off
Versions: 1 2 3 4 5 6 7 8 9 10 11 12 13 14 15 16 17 18 19 20 21 22 23 24 25 26 27 28 29 30 31 32 33 34 35 36 37 38 39 40 41 42 43 44 45 46 47 48 49 50
000 ASUS41 KOKX 290008 RWROKX REGIONAL WEATHER ROUNDUP NATIONAL WEATHER SERVICE NEW YORK NY 800 PM EDT TUE JUL 28 2015 NOTE: "FAIR" INDICATES FEW OR NO CLOUDS BELOW 12,000 FEET WITH NO SIGNIFICANT WEATHER AND/OR OBSTRUCTIONS TO VISIBILITY. NYZ071-072-176-178-NJZ106-104-290100- NEW YORK CITY METRO AREA CITY SKY/WX TMP DP RH WIND PRES REMARKS CENTRAL PARK CLEAR 85 63 47 CALM 29.98R LAGUARDIA APRT CLEAR 86 64 47 S9 29.94R KENNEDY INTL PTCLDY 80 72 76 S13 29.96R NEWARK/LIBERTY PTCLDY 87 70 56 S6 29.94R HX 92 BRNX BOT. GARD N/A 82 64 54 SE2 29.98R TETERBORO MOCLDY 88 64 44 S8 29.93R $$ NYZ177-179-078>081-290100- LONG ISLAND NEW YORK CITY SKY/WX TMP DP RH WIND PRES REMARKS FARMINGDALE CLEAR 80 71 74 SW10 29.96S ISLIP MOCLDY 79 71 76 SW8 29.94S SHIRLEY CLEAR 80 72 76 SW8 29.96S WESTHAMPTON PTCLDY 79 73 82 SW8 29.97R MONTAUK POINT N/A 80 69 69 SW7 29.95F $$ NYZ052-065-067-290100- HUDSON VALLEY CITY SKY/WX TMP DP RH WIND PRES REMARKS WHITE PLAINS PTCLDY 80 66 62 S3 29.96R NEWBURGH PTCLDY 86 66 51 CALM 29.97R MONTGOMERY PTCLDY 82 73 74 CALM 29.95R POUGHKEEPSIE MOCLDY 84 68 58 CALM 29.93R ALBANY MOCLDY 81 68 64 VRB3 29.96R $$ NJZ001-105-106-008-010-013-015-019>022-104-290100- NEW JERSEY CITY SKY/WX TMP DP RH WIND PRES REMARKS NEWARK/LIBERTY PTCLDY 87 70 56 S6 29.94R HX 92 TETERBORO MOCLDY 88 64 44 S8 29.93R CALDWELL CLEAR 88 60 38 NW3 29.95R MORRISTOWN PTCLDY 84 63 48 CALM 29.95R SOMERVILLE CLEAR 81 65 58 CALM 29.94R SUSSEX CLEAR 80 69 69 W3 29.97S ANDOVER N/A 79 68 69 CALM 29.97F TRENTON CLEAR 88 63 43 N3 29.96R MILLVILLE PTCLDY 79 70 74 SE6 29.99R ATLANTIC CITY CLOUDY 76 73 91 CALM 29.98R WRIGHTSTOWN CLEAR 81 71 71 S5 29.95R TOMS RIVER CLEAR 81 73 78 S5 29.98R BELMAR CLEAR 82 68 61 SW5 29.97S $$ PAZ047>061-062-071-290100- EASTERN PENNSYLVANIA CITY SKY/WX TMP DP RH WIND PRES REMARKS PHILADELPHIA PTCLDY 88 70 55 SW8 29.96R HX 93 ALLENTOWN CLEAR 86 65 49 CALM 29.96S SCRANTON CLEAR 86 64 47 W3 29.99S $$ CTZ002-004>006-009-010-012-RIZ004-006-007-MAZ004-011-015-290100- SOUTHERN NEW ENGLAND IN CT CITY SKY/WX TMP DP RH WIND PRES REMARKS BRADLEY INTL MOCLDY 84 66 54 NW5 29.93R HARTFORD PTCLDY 87 62 43 NW6 29.93R DANBURY CLEAR 80 67 64 CALM 29.98R WTRBRY/OXFORD PTCLDY 82 66 57 CALM 30.01S BRIDGEPORT CLEAR 86 67 52 SW5 29.94S MERIDEN CLEAR 83 66 56 W3 29.94S NEW HAVEN PTCLDY 82 67 60 CALM 29.94S CHESTER FAIR 81 72 74 SW3 29.96S GROTON PTCLDY 79 71 76 SE10 29.94R WILLIMANTIC PTCLDY 84 68 58 E5 29.94R IN RI CITY SKY/WX TMP DP RH WIND PRES REMARKS PROVIDENCE MOCLDY 76 67 73 CALM 29.95S BLOCK ISLAND MOCLDY 77 72 83 SW6 29.96F WESTERLY MOCLDY 75 71 87 CALM 29.96F IN MA CITY SKY/WX TMP DP RH WIND PRES REMARKS BOSTON MOCLDY 77 67 71 E7 29.95R WORCESTER PTCLDY 77 68 73 NW7 29.99S WESTFIELD CLEAR 80 73 79 CALM 29.95R PROVINCETOWN MOCLDY 73 66 78 SW3 29.95S NANTUCKET FOG 70 69 97 S3 29.96R VSB 1/4 $$ ANZ330-335-338-340-345-350-353-355-290100- COASTAL MARINE OBSERVATIONS STATION/POSITION TIME SKY/WX TEMP WIND PRES VSBY WAVE AIR SEA DIR/SP/G HT/PER (UTC) (F) (DEG/KT/KT) (MB) (MI) (FT/S) NY HARB ENTRANCE 2350 78 76 200/ 10/ 12 1013.9 3/ 6 4S FIRE IS NOT AVBL 20S FIRE ISLAND 2350 76 74 210/ 10/ 12 1014.3 2/11 GREAT SOUTH BAY 2300 78 81 230/ 12/ 14 N/A 23SW MTP 2350 75 75 240/ 12/ 14 1013.8 2/11 HUDSON CANYON NOT AVBL KINGS POINT 2300 82 70 200/ 9/ 10 1013.3 CENTRAL LI SOUND NOT AVBL EASTERN LI SOUND 2300 76 69 230/ 6/ 8 N/A ROBBINS REEF 2300 83 160/ 12/ 13 1012.8 $$ >>>>>>>>>>>>>>>>>>>>>>>>>>>> KEY <<<<<<<<<<<<<<<<<<<<<<<<<<< > < > SKY/WX - SKY CONDITION/PRESENT WEATHER < > TMP - TEMPERATURE IN FAHRENHEIT < > DP - DEWPOINT IN FAHRENHEIT < > RH - RELATIVE HUMIDITY IN PERCENT < > WIND - DIRECTION AND SPEED IN MPH < > PRES - MEAN SEA LEVEL PRESSURE IN INCHES OF HG < > WCI - WIND CHILL INDEX < > VSB - VISIBILITY IN MILES < > HX - HEAT INDEX < > TC - TEMPERATURE IN CELSIUS < > VRB - VARIABLE WIND DIRECTION < > < >>>>>>>>>>>>>>>>>>>>>>>>>>>> KEY <<<<<<<<<<<<<<<<<<<<<<<<<<<

USA.gov is the U.S. government's official web portal to all federal, state and local government web resources and services.